Flag for Canada Weather past 2 weeks in Kitchener, Ontario, Canada

27 °F


Feels Like: 21 °F
Forecast: 20 / 37 °F
Wind: 5 mph from North

Location: Waterloo Well

Current Time: Nov 28, 2015 at 8:51:08 PM

Latest Report: Nov 28, 2015 at 8:00 PM

Visibility: 9 mi

Pressure: 30.34 "Hg

Humidity: 100%

Dew point: 27 °F

Location of KitchenerLocation

Historic Weather in Kitchener — Graph


Kitchener temperature yesterday

Maximum temperature yesterday: 57 °F (at 12:00 AM)
Minimum temperature yesterday: 34 °F (at 8:58 PM)
Average temperature yesterday: 48 °F

Past Weeks' High & Low Weather Summary

High59 °F (Nov 16, 2:00 PM)100% (Nov 15, 9:00 PM)30.58 "Hg (Nov 15, 9:00 PM)
Low7 °F (Nov 23, 5:00 AM)45% (Nov 20, 12:00 PM)29.57 "Hg (Nov 21, 11:00 PM)
Average39 °F81%30.18 "Hg
* Reported Nov 13 7:00 PM — Nov 28 7:00 PM, Kitchener, Weather by CustomWeather, © 2015

Note: Actual official high and low records may vary slightly from our data, if they occured in-between our weather recording intervals... More about our weather records


Kitchener weather history for previous 24 hours

Time TempWeatherWind HumidityBarometerVisibility
7:00 PM
Sat, Nov 28
27 °FClear.3 mph93%30.34 "Hg9 mi
6:00 PM28 °FClear.2 mph86%30.32 "Hg9 mi
5:00 PM30 °FClear.5 mph86%30.32 "Hg9 mi
4:00 PM36 °FSunny.7 mph70%30.30 "Hg9 mi
3:00 PM36 °FPassing clouds.3 mph70%30.30 "Hg9 mi
2:00 PM34 °FScattered clouds.7 mph81%30.32 "Hg9 mi
1:00 PM32 °FScattered clouds.6 mph80%30.32 "Hg9 mi
12:56 PM34 °FScattered clouds.7 mph75%30.33 "Hg9 mi
12:00 PM32 °FPartly sunny.6 mph80%30.34 "Hg9 mi
11:00 AM30 °FPassing clouds.7 mph86%30.36 "Hg9 mi
10:00 AM30 °FMostly cloudy.7 mph86%30.37 "Hg9 mi
9:00 AM32 °FPartly sunny.6 mph87%30.36 "Hg9 mi
8:00 AM30 °FPassing clouds.3 mph86%30.36 "Hg9 mi
7:00 AM32 °FMostly cloudy.6 mph87%30.36 "Hg9 mi
6:00 AM32 °FMostly cloudy.9 mph87%30.34 "Hg9 mi
5:00 AM32 °FMostly cloudy.10 mph87%30.35 "Hg9 mi
4:00 AM32 °FOvercast.7 mph87%30.33 "Hg9 mi
3:45 AM32 °FMostly cloudy.8 mph87%30.33 "Hg9 mi
3:00 AM32 °FOvercast.8 mph93%30.34 "Hg9 mi
1:00 AM34 °FMostly cloudy.7 mph87%30.33 "Hg9 mi
12:00 AM34 °FOvercast.8 mph87%30.34 "Hg9 mi
11:00 PM
Fri, Nov 27
34 °FMostly cloudy.8 mph87%30.34 "Hg9 mi
10:00 PM34 °FLight rain. Overcast.10 mph87%30.33 "Hg9 mi
9:00 PM34 °FLight rain. Overcast.14 mph87%30.34 "Hg9 mi
8:58 PM34 °FLight rain. Overcast.13 mph87%30.33 "Hg9 mi
8:00 PM36 °FLight rain. Mostly cloudy.9 mph87%30.32 "Hg9 mi
Weather by CustomWeather, © 2015

See weather overviewHow to use our weather pages